H1 CPF 2 NER 2021 1 19 9 019 01 glonass139 H2 1808601 9139 43687 2021 1 19 0 0 0 2021 1 22 23 45 0 900 1 1 0 0 0 1 H9 10 0 59233 0.00000 0 -6171890.881 16341794.887 -18568477.937 10 0 59233 900.00000 0 -7756549.927 17822649.971 -16497703.185 10 0 59233 1800.00000 0 -9034249.277 19221139.862 -14105985.825 10 0 59233 2700.00000 0 -10000503.973 20475429.710 -11439877.999 10 0 59233 3600.00000 0 -10663532.218 21526135.275 -8551267.377 10 0 59233 4500.00000 0 -11043641.670 22318854.463 -5496361.379 10 0 59233 5400.00000 0 -11172111.089 22806507.761 -2334587.050 10 0 59233 6300.00000 0 -11089616.048 22951388.471 872571.414 10 0 59233 7200.00000 0 -10844266.811 22726836.077 4062774.018 10 0 59233 8100.00000 0 -10489342.820 22118462.130 7174041.111 10 0 59233 9000.00000 0 -10080820.919 21124877.006 10145960.101 10 0 59233 9900.00000 0 -9674802.809 19757887.154 12920858.709 10 0 59233 10800.00000 0 -9324951.218 18042154.744 15444921.908 10 0 59233 11700.00000 0 -9080043.450 16014334.221 17669230.996 10 0 59233 12600.00000 0 -8981745.611 13721722.100 19550705.051 10 0 59233 13500.00000 0 -9062701.178 11220476.429 21052927.323 10 0 59233 14400.00000 0 -9345014.039 8573479.910 22146841.494 10 0 59233 15300.00000 0 -9839189.425 5847935.253 22811305.339 10 0 59233 16200.00000 0 -10543576.907 3112791.902 23033492.129 10 0 59233 17100.00000 0 -11444338.717 436109.882 22809132.902 10 0 59233 18000.00000 0 -12515944.820 -2117531.015 22142595.536 10 0 59233 18900.00000 0 -13722174.412 -4489470.754 21046799.441 10 0 59233 19800.00000 0 -15017582.573 -6629157.586 19542967.515 10 0 59233 20700.00000 0 -16349371.514 -8495996.119 17660219.794 10 0 59233 21600.00000 0 -17659589.033 -10060779.560 15435016.048 10 0 59233 22500.00000 0 -18887563.065 -11306647.700 12910457.239 10 0 59233 23400.00000 0 -19972471.067 -12229531.632 10135458.482 10 0 59233 24300.00000 0 -20855937.091 -12838067.457 7163808.585 10 0 59233 25200.00000 0 -21484547.798 -13152983.140 4053133.585 10 0 59233 26100.00000 0 -21812181.606 -13205984.642 863783.798 10 0 59233 27000.00000 0 -21802052.630 -13038188.487 -2342334.361 10 0 59233 27900.00000 0 -21428382.633 -12698167.023 -5502959.314 10 0 59233 28800.00000 0 -20677629.600 -12239689.076 -8556684.443 10 0 59233 29700.00000 0 -19549219.945 -11719251.680 -11444153.632 10 0 59233 30600.00000 0 -18055752.148 -11193507.584 -14109218.609 10 0 59233 31500.00000 0 -16222661.863 -10716697.707 -16500035.013 10 0 59233 32400.00000 0 -14087361.133 -10338197.658 -18570075.484 10 0 59233 33300.00000 0 -11697886.475 -10100282.647 -20279039.677 10 0 59233 34200.00000 0 -9111111.384 -10036205.900 -21593643.140 10 0 59233 35100.00000 0 -6390596.976 -10168672.474 -22488269.511 10 0 59233 36000.00000 0 -3604169.728 -10508773.615 -22945473.176 10 0 59233 36900.00000 0 -821326.796 -11055427.366 -22956322.465 10 0 59233 37800.00000 0 1889423.477 -11795349.708 -22520576.561 10 0 59233 38700.00000 0 4463175.525 -12703558.087 -21646692.530 10 0 59233 39600.00000 0 6841086.418 -13744386.681 -20351662.149 10 0 59233 40500.00000 0 8972579.572 -14872970.989 -18660681.512 10 0 59233 41400.00000 0 10817201.022 -16037139.475 -16606659.632 10 0 59233 42300.00000 0 12346051.316 -17179632.550 -14229575.557 10 0 59233 43200.00000 0 13542734.183 -18240555.220 -11575696.488 10 0 59233 44100.00000 0 14403783.336 -19159959.663 -8696672.266 10 0 59233 45000.00000 0 14938550.827 -19880448.311 -5648524.264 10 0 59233 45900.00000 0 15168563.197 -20349687.085 -2490548.852 10 0 59233 46800.00000 0 15126374.181 -20522722.194 715842.561 10 0 59233 47700.00000 0 14853963.968 -20364002.251 3908323.545 10 0 59233 48600.00000 0 14400754.212 -19849020.056 7024868.641 10 0 59233 49500.00000 0 13821324.056 -18965504.585 10004961.084 10 0 59233 50400.00000 0 13172924.789 -17714112.914 12790768.254 10 0 59233 51300.00000 0 12512898.997 -16108592.965 15328261.865 10 0 59233 52200.00000 0 11896113.619 -14175410.233 17568261.322 10 0 59233 53100.00000 0 11372515.302 -11952854.174 19467380.376 10 0 59233 54000.00000 0 10984910.866 -9489661.476 20988859.495 10 0 59233 54900.00000 0 10767065.839 -6843213.329 22103268.807 10 0 59233 55800.00000 0 10742200.415 -4077381.296 22789068.968 10 0 59233 56700.00000 0 10921945.371 -1260110.544 23033020.198 10 0 59233 57600.00000 0 11305801.228 1539160.295 22830432.445 10 0 59233 58500.00000 0 11881122.985 4252136.770 22185252.494 10 0 59233 59400.00000 0 12623630.999 6814255.829 21109986.687 10 0 59233 60300.00000 0 13498426.806 9167116.843 19625460.749 10 0 59233 61200.00000 0 14461471.766 11260656.932 17760421.025 10 0 59233 62100.00000 0 15461467.217 13054981.659 15550984.241 10 0 59233 63000.00000 0 16442058.020 14521776.181 13039945.551 10 0 59233 63900.00000 0 17344267.730 15645238.969 10275957.426 10 0 59233 64800.00000 0 18109063.697 16422499.949 7312594.311 10 0 59233 65700.00000 0 18679944.594 16863506.155 4207320.378 10 0 59233 66600.00000 0 19005441.534 16990379.989 1020379.818 10 0 59233 67500.00000 0 19041427.159 16836277.377 -2186369.172 10 0 59233 68400.00000 0 18753134.760 16443793.991 -5350654.257 10 0 59233 69300.00000 0 18116801.346 15862986.870 -8410999.166 10 0 59233 70200.00000 0 17120864.212 15149095.035 -11307920.479 10 0 59233 71100.00000 0 15766659.095 14360055.572 -13985087.351 10 0 59233 72000.00000 0 14068589.014 13553920.348 -16390421.067 10 0 59233 72900.00000 0 12053755.076 12786282.851 -18477112.658 10 0 59233 73800.00000 0 9761063.122 12107824.215 -20204538.387 10 0 59233 74700.00000 0 7239842.317 11562082.499 -21539054.921 10 0 59233 75600.00000 0 4548032.117 11183539.829 -22454658.532 10 0 59233 76500.00000 0 1750012.309 10996108.540 -22933495.326 10 0 59233 77400.00000 0 -1085834.160 11012080.602 -22966212.391 10 0 59233 78300.00000 0 -3889724.699 11231584.980 -22552142.941 10 0 59233 79200.00000 0 -6593139.002 11642576.149 -21699321.670 10 0 59233 80100.00000 0 -9131428.919 12221354.447 -20424329.854 10 0 59233 81000.00000 0 -11446267.930 12933596.500 -18751973.012 10 0 59233 81900.00000 0 -13487838.616 13735852.229 -16714797.214 10 0 59233 82800.00000 0 -15216667.237 14577445.186 -14352453.349 10 0 59233 83700.00000 0 -16605029.509 15402695.679 -11710921.737 10 0 59233 84600.00000 0 -17637869.638 16153372.419 -8841612.274 10 0 59233 85500.00000 0 -18313195.092 16771268.532 -5800358.033 10 0 59234 0.00000 0 -18641931.901 17200792.495 -2646322.465 10 0 59234 900.00000 0 -18647247.940 17391463.536 559158.301 10 0 59234 1800.00000 0 -18363374.523 17300206.397 3753773.732 10 0 59234 2700.00000 0 -17833977.040 16893346.243 6875454.952 10 0 59234 3600.00000 0 -17110145.465 16148221.017 9863583.448 10 0 59234 4500.00000 0 -16248090.326 15054341.598 12660168.659 10 0 59234 5400.00000 0 -15306642.582 13614051.354 15210971.411 10 0 59234 6300.00000 0 -14344663.357 11842656.999 17466551.508 10 0 59234 7200.00000 0 -13418472.953 9768025.197 19383219.528 10 0 59234 8100.00000 0 -12579407.213 7429661.551 20923875.133 10 0 59234 9000.00000 0 -11871603.510 4877310.001 22058716.622 10 0 59234 9900.00000 0 -11330108.633 2169130.536 22765808.959 10 0 59234 10800.00000 0 -10979387.140 -630469.859 23031500.391 10 0 59234 11700.00000 0 -10832291.821 -3453263.935 22850680.469 10 0 59234 12600.00000 0 -10889538.688 -6229789.070 22226875.160 10 0 59234 13500.00000 0 -11139707.923 -8891984.531 21172177.566 10 0 59234 14400.00000 0 -11559770.443 -11375773.215 19707015.614 10 0 59234 15300.00000 0 -12116118.020 -13623482.124 17859760.881 10 0 59234 16200.00000 0 -12766054.009 -15586002.447 15666185.531 10 0 59234 17100.00000 0 -13459682.523 -17224600.657 13168777.010 10 0 59234 18000.00000 0 -14142117.261 -18512306.088 10415922.884 10 0 59234 18900.00000 0 -14755917.567 -19434817.869 7460980.696 10 0 59234 19800.00000 0 -15243649.553 -19990893.851 4361249.984 10 0 59234 20700.00000 0 -15550464.516 -20192205.454 1176865.875 10 0 59234 21600.00000 0 -15626585.744 -20062664.749 -2030364.712 10 0 59234 22500.00000 0 -15429598.288 -19637252.091 -5198161.830 10 0 59234 23400.00000 0 -14926444.257 -18960393.664 -8264982.753 10 0 59234 24300.00000 0 -14095038.261 -18083957.343 -11171219.963 10 0 59234 25200.00000 0 -12925433.478 -17064951.423 -13860363.186 10 0 59234 26100.00000 0 -11420487.608 -15963023.446 -16280102.364 10 0 59234 27000.00000 0 -9595999.001 -14837864.814 -18383349.682 10 0 59234 27900.00000 0 -7480305.454 -13746630.885 -20129160.426 10 0 59234 28800.00000 0 -5113360.935 -12741485.631 -21483534.344 10 0 59234 29700.00000 0 -2545327.320 -11867374.582 -22420081.770 10 0 59234 30600.00000 0 165261.341 -11160120.115 -22920541.358 10 0 59234 31500.00000 0 2953686.416 -10644919.516 -22975139.187 10 0 59234 32400.00000 0 5751493.864 -10335309.159 -22582782.159 10 0 59234 33300.00000 0 8489103.619 -10232638.429 -21751081.731 10 0 59234 34200.00000 0 11098470.902 -10326075.513 -20496207.343 10 0 59234 35100.00000 0 13515689.027 -10593144.619 -18842572.195 10 0 59234 36000.00000 0 15683425.510 -11000771.680 -16822357.284 10 0 59234 36900.00000 0 17553090.142 -11506794.050 -14474882.866 10 0 59234 37800.00000 0 19086644.906 -12061869.899 -11845839.568 10 0 59234 38700.00000 0 20257980.644 -12611706.024 -8986394.221 10 0 59234 39600.00000 0 21053803.506 -13099509.152 -5952188.230 10 0 59234 40500.00000 0 21473995.042 -13468556.291 -2802248.437 10 0 59234 41400.00000 0 21531431.989 -13664774.559 402167.681 10 0 59234 42300.00000 0 21251274.694 -13639220.627 3598769.183 10 0 59234 43200.00000 0 20669755.583 -13350354.206 6725447.214 10 0 59234 44100.00000 0 19832520.149 -12766008.935 9721484.643 10 0 59234 45000.00000 0 18792591.692 -11864977.023 12528735.725 10 0 59234 45900.00000 0 17608046.622 -10638140.500 15092752.709 10 0 59234 46800.00000 0 16339498.993 -9089101.186 17363837.631 10 0 59234 47700.00000 0 15047500.492 -7234282.691 19297999.242 10 0 59234 48600.00000 0 13789965.153 -5102499.847 20857797.263 10 0 59234 49500.00000 0 12619726.526 -2734013.114 22013058.569 10 0 59234 50400.00000 0 11582329.022 -179106.887 22741452.408 10 0 59234 51300.00000 0 10714145.053 2503749.935 23028914.612 10 0 59234 52200.00000 0 10040895.679 5250085.682 22869913.519 10 0 59234 53100.00000 0 9576635.643 7991860.462 22267553.093 10 0 59234 54000.00000 0 9323244.292 10660053.920 21233511.701 10 0 59234 54900.00000 0 9270442.919 13187300.256 19787817.690 10 0 59234 55800.00000 0 9396337.359 15510462.504 17958465.850 10 0 59234 56700.00000 0 9668462.841 17573040.519 15780881.564 10 0 59234 57600.00000 0 10045287.315 19327313.722 13297242.172 10 0 59234 58500.00000 0 10478110.314 20736130.219 10555667.814 10 0 59234 59400.00000 0 10913277.745 21774268.422 7609296.486 10 0 59234 60300.00000 0 11294619.649 22429314.684 4515260.377 10 0 59234 61200.00000 0 11566008.240 22702020.369 1333582.795 10 0 59234 62100.00000 0 11673928.212 22606123.457 -1873983.355 10 0 59234 63000.00000 0 11569950.401 22167642.076 -5045153.164 10 0 59234 63900.00000 0 11213003.635 21423669.502 -8118319.940 10 0 59234 64800.00000 0 10571347.794 20420721.219 -11033754.322 10 0 59234 65700.00000 0 9624163.493 19212703.515 -13734768.600 10 0 59234 66600.00000 0 8362689.791 17858589.168 -16168823.061 10 0 59234 67500.00000 0 6790860.314 16419898.131 -18288552.448 10 0 59234 68400.00000 0 4925409.192 14958089.403 -20052692.179 10 0 59234 69300.00000 0 2795440.635 13531974.000 -21426885.940 10 0 59234 70200.00000 0 441478.483 12195258.005 -22384358.733 10 0 59234 71100.00000 0 -2085966.072 10994319.086 -22906442.106 10 0 59234 72000.00000 0 -4728249.974 9966310.022 -22982941.212 10 0 59234 72900.00000 0 -7420800.691 9137668.862 -22612336.394 10 0 59234 73800.00000 0 -10095574.499 8523098.152 -21801815.260 10 0 59234 74700.00000 0 -12683668.729 8125055.879 -20567134.412 10 0 59234 75600.00000 0 -15117979.526 7933779.079 -18932313.337 10 0 59234 76500.00000 0 -17335794.599 7927838.569 -16929166.203 10 0 59234 77400.00000 0 -19281212.889 8075200.745 -14596680.583 10 0 59234 78300.00000 0 -20907290.336 8334750.838 -11980255.147 10 0 59234 79200.00000 0 -22177822.304 8658212.432 -9130811.290 10 0 59234 80100.00000 0 -23068688.402 8992381.137 -6103796.324 10 0 59234 81000.00000 0 -23568703.988 9281576.958 -2958098.136 10 0 59234 81900.00000 0 -23679943.463 9470210.564 245106.947 10 0 59234 82800.00000 0 -23417522.779 9505353.897 3443549.863 10 0 59234 83700.00000 0 -22808851.582 9339205.507 6575084.061 10 0 59234 84600.00000 0 -21892387.700 8931345.566 9578896.054 10 0 59234 85500.00000 0 -20715947.672 8250684.744 12396687.132 10 0 59235 0.00000 0 -19334645.521 7277024.293 14973803.066 10 0 59235 900.00000 0 -17808547.257 6002160.767 17260290.256 10 0 59235 1800.00000 0 -16200140.124 4430490.031 19211857.449 10 0 59235 2700.00000 0 -14571723.258 2579082.648 20790726.057 10 0 59235 3600.00000 0 -12982828.250 477229.256 21966352.890 10 0 59235 4500.00000 0 -11487777.527 -1834527.000 22716012.514 10 0 59235 5400.00000 0 -10133481.428 -4305830.829 23025229.043 10 0 59235 6300.00000 0 -8957564.922 -6878369.155 22888049.924 10 0 59235 7200.00000 0 -7986901.008 -9488063.424 22307157.104 10 0 59235 8100.00000 0 -7236610.772 -12067510.140 21293813.825 10 0 59235 9000.00000 0 -6709570.776 -14548569.687 19867648.125 10 0 59235 9900.00000 0 -6396447.501 -16864997.226 18056276.932 10 0 59235 10800.00000 0 -6276256.729 -18955007.676 15894777.454 10 0 59235 11700.00000 0 -6317424.052 -20763669.233 13425015.233 10 0 59235 12600.00000 0 -6479301.841 -22245026.542 10694841.025 10 0 59235 13500.00000 0 -6714078.923 -23363865.646 7757171.097 10 0 59235 14400.00000 0 -6969002.617 -24097047.295 4668967.933 10 0 59235 15300.00000 0 -7188819.544 -24434352.880 1490140.515 10 0 59235 16200.00000 0 -7318332.083 -24378807.444 -1717614.886 10 0 59235 17100.00000 0 -7304962.187 -23946465.927 -4892011.119 10 0 59235 18000.00000 0 -7101213.678 -23165671.279 -7971380.334 10 0 59235 18900.00000 0 -6666928.083 -22075815.286 -10895874.207 10 0 59235 19800.00000 0 -5971237.557 -20725653.898 -13608630.487 10 0 59235 20700.00000 0 -4994131.065 -19171247.703 -16056882.645 10 0 59235 21600.00000 0 -3727566.172 -17473614.020 -18192990.680 10 0 59235 22500.00000 0 -2176077.856 -15696189.206 -19975372.606 10 0 59235 23400.00000 0 -356856.987 -13902207.870 -21369318.150 10 0 59235 24300.00000 0 1700706.572 -12152108.992 -22347668.653 10 0 59235 25200.00000 0 3955998.783 -10501077.833 -22891349.748 10 0 59235 26100.00000 0 6358634.821 -8996826.688 -22989746.315 10 0 59235 27000.00000 0 8850331.513 -7677707.401 -22640912.298 10 0 59235 27900.00000 0 11367121.712 -6571234.486 -21851611.131 10 0 59235 28800.00000 0 13841818.826 -5693080.427 -20637185.793 10 0 59235 29700.00000 0 16206629.183 -5046584.732 -19021260.853 10 0 59235 30600.00000 0 18395803.491 -4622796.578 -17035282.028 10 0 59235 31500.00000 0 20348216.721 -4401048.424 -14717902.168 10 0 59235 32400.00000 0 22009768.654 -4350035.341 -12114225.543 10 0 59235 33300.00000 0 23335504.726 -4429353.413 -9274925.255 10 0 59235 34200.00000 0 24291368.418 -4591431.060 -6255251.323 10 0 59235 35100.00000 0 24855512.035 -4783770.378 -3113949.199 10 0 59235 36000.00000 0 25019111.337 -4951402.481 87889.600 10 0 59235 36900.00000 0 24786650.501 -5039451.771 3288021.576 10 0 59235 37800.00000 0 24175666.335 -4995699.572 6424266.078 10 0 59235 38700.00000 0 23215963.543 -4773037.742 9435716.627 10 0 59235 39600.00000 0 21948335.104 -4331707.843 12263924.585 10 0 59235 40500.00000 0 20422842.600 -3641230.722 14854031.972 10 0 59235 41400.00000 0 18696729.514 -2681944.730 17155831.552 10 0 59235 42300.00000 0 16832055.700 -1446087.504 19124733.887 10 0 59235 43200.00000 0 14893152.320 61624.423 20722623.380 10 0 59235 44100.00000 0 12944003.646 1823942.884 21918587.628 10 0 59235 45000.00000 0 11045664.629 3811564.822 22689506.943 10 0 59235 45900.00000 0 9253821.156 5984119.295 23020493.728 10 0 59235 46800.00000 0 7616593.591 8291624.454 22905174.142 10 0 59235 47700.00000 0 6172673.889 10676354.828 22345807.291 10 0 59235 48600.00000 0 4949872.510 13075042.466 21353240.081 10 0 59235 49500.00000 0 3964134.372 15421321.795 19946698.643 10 0 59235 50400.00000 0 3219063.723 17648317.761 18153420.108 10 0 59235 51300.00000 0 2705976.795 19691270.939 16008131.269 10 0 59235 52200.00000 0 2404479.247 21490091.433 13552383.378 10 0 59235 53100.00000 0 2283543.749 22991735.922 10833755.109 10 0 59235 54000.00000 0 2303042.136 24152309.302 7904938.149 10 0 59235 54900.00000 0 2415667.537 24938803.349 4822722.296 10 0 59235 55800.00000 0 2569165.426 25330399.606 1646899.177 10 0 59235 56700.00000 0 2708779.316 25319281.645 -1560894.609 10 0 59235 57600.00000 0 2779807.532 24910922.206 -4738372.632 10 0 59235 58500.00000 0 2730162.578 24123832.550 -7823808.698 10 0 59235 59400.00000 0 2512824.179 22988784.027 -10757238.095 10 0 59235 60300.00000 0 2088081.349 21547533.945 -13481626.318 10 0 59235 61200.00000 0 1425467.574 19851108.830 -15943982.009 10 0 59235 62100.00000 0 505305.992 17957716.793 -18096392.059 10 0 59235 63000.00000 0 -680202.174 15930376.336 -19896958.390 10 0 59235 63900.00000 0 -2126393.403 13834360.936 -21310617.777 10 0 59235 64800.00000 0 -3816088.172 11734566.361 -22309828.589 10 0 59235 65700.00000 0 -5720071.664 9692910.911 -22875110.918 10 0 59235 66600.00000 0 -7798090.248 7765877.319 -22995429.412 10 0 59235 67500.00000 0 -10000323.335 6002298.951 -22668411.277 10 0 59235 68400.00000 0 -12269270.197 4441482.629 -21900395.013 10 0 59235 69300.00000 0 -14541973.656 3111746.224 -20706308.801 10 0 59235 70200.00000 0 -16752488.286 2029431.587 -19109380.668 10 0 59235 71100.00000 0 -18834490.347 1198433.383 -17140685.880 10 0 59235 72000.00000 0 -20723920.335 610262.617 -14838540.239 10 0 59235 72900.00000 0 -22361547.571 244640.984 -12247751.063 10 0 59235 73800.00000 0 -23695349.345 70599.707 -9418740.483 10 0 59235 74700.00000 0 -24682604.689 48035.162 -6406558.485 10 0 59235 75600.00000 0 -25291614.991 129654.120 -3269805.367 10 0 59235 76500.00000 0 -25502979.289 263224.990 -69485.164 10 0 59235 77400.00000 0 -25310371.017 394038.449 3132186.789 10 0 59235 78300.00000 0 -24720784.078 467472.124 6272998.274 10 0 59235 79200.00000 0 -23754238.638 431549.727 9291952.263 10 0 59235 80100.00000 0 -22442959.818 239385.569 12130452.516 10 0 59235 81000.00000 0 -20830064.658 -148589.487 14733439.444 10 0 59235 81900.00000 0 -18967813.169 -762715.044 17050454.245 10 0 59235 82800.00000 0 -16915497.388 -1622582.044 19036610.981 10 0 59235 83700.00000 0 -14737057.068 -2735971.631 20653458.449 10 0 59235 84600.00000 0 -12498521.546 -4098296.797 21869716.083 10 0 59235 85500.00000 0 -10265384.189 -5692570.476 22661870.604 10 0 59236 0.00000 0 -8100018.035 -7489901.855 23014622.990 10 0 59236 900.00000 0 -6059239.198 -9450501.194 22921178.010 10 0 59236 1800.00000 0 -4192117.772 -11525151.150 22383371.509 10 0 59236 2700.00000 0 -2538126.813 -13657085.724 21411633.297 10 0 59236 3600.00000 0 -1125703.597 -15784198.651 20024786.576 10 0 59236 4500.00000 0 28717.144 -17841491.068 18249687.389 10 0 59236 5400.00000 0 921159.506 -19763657.583 16120710.577 10 0 59236 6300.00000 0 1560034.046 -21487704.071 13679091.343 10 0 59236 7200.00000 0 1965540.528 -22955488.820 10972134.299 10 0 59236 8100.00000 0 2168571.417 -24116081.463 8052304.392 10 0 59236 9000.00000 0 2209162.564 -24927841.340 4976216.435 10 0 59236 9900.00000 0 2134556.485 -25360128.134 1803542.278 10 0 59236 10800.00000 0 1996960.130 -25394572.772 -1404143.643 10 0 59236 11700.00000 0 1851092.059 -25025854.628 -4584558.169 10 0 59236 12600.00000 0 1751623.012 -24261951.655 -7675919.343 10 0 59236 13500.00000 0 1750618.656 -23123852.121 -10618148.678 10 0 59236 14400.00000 0 1895093.398 -21644739.187 -13354042.016 10 0 59236 15300.00000 0 2224779.633 -19868681.832 -15830385.700 10 0 59236 16200.00000 0 2770207.847 -17848886.405 -17998995.931 10 0 59236 17100.00000 0 3551179.964 -15645581.546 -19817660.739 10 0 59236 18000.00000 0 4575701.734 -13323624.753 -21250965.847 10 0 59236 18900.00000 0 5839420.653 -10949930.450 -22270988.190 10 0 59236 19800.00000 0 7325594.575 -8590826.846 -22857843.435 10 0 59236 20700.00000 0 9005593.759 -6309451.922 -23000076.662 10 0 59236 21600.00000 0 10839916.634 -4163297.014 -22694888.554 10 0 59236 22500.00000 0 12779677.847 -2202000.254 -21948192.480 10 0 59236 23400.00000 0 14768507.133 -465481.671 -20774501.200 10 0 59236 24300.00000 0 16744780.154 1017502.770 -19196645.209 10 0 59236 25200.00000 0 18644088.272 2230328.492 -17245327.937 10 0 59236 26100.00000 0 20401843.895 3168951.416 -14958526.381 10 0 59236 27000.00000 0 21955912.158 3841821.266 -12380748.759 10 0 59236 27900.00000 0 23249158.347 4269264.064 -9562163.702 10 0 59236 28800.00000 0 24231803.865 4482361.299 -6557618.291 10 0 59236 29700.00000 0 24863491.532 4521374.611 -3425564.514 10 0 59236 30600.00000 0 25114973.291 4433784.124 -226915.577 10 0 59236 31500.00000 0 24969349.321 4272024.821 2976144.781 10 0 59236 32400.00000 0 24422806.700 4091018.125 6121376.148 10 0 59236 33300.00000 0 23484826.875 3945604.357 9147694.172 10 0 59236 34200.00000 0 22177853.796 3887985.590 11996357.992 10 0 59236 35100.00000 0 20536437.233 3965287.770 14612109.073 10 0 59236 36000.00000 0 18605887.754 4217345.509 16944239.372 10 0 59236 36900.00000 0 16440500.238 4674803.248 18947568.410 10 0 59236 37800.00000 0 14101420.437 5357612.864 20583310.967 10 0 59236 38700.00000 0 11654243.604 6273990.942 21819819.541 10 0 59236 39600.00000 0 9166445.023 7419879.552 22633188.120 10 0 59236 40500.00000 0 6704748.655 8778933.306 23007706.712 10 0 59236 41400.00000 0 4332542.288 10323033.638 22936158.772 10 0 59236 42300.00000 0 2107445.409 12013309.405 22419956.481 10 0 59236 43200.00000 0 79129.347 13801622.014 21469111.753 10 0 59236 44100.00000 0 -1712521.279 15632454.155 20102043.579 10 0 59236 45000.00000 0 -3238830.754 17445124.425 18345225.214 10 0 59236 45900.00000 0 -4483280.335 19176236.610 16232677.464 10 0 59236 46800.00000 0 -5441943.832 20762262.442 13805317.072 10 0 59236 47700.00000 0 -6123393.463 22142150.764 11110171.932 10 0 59236 48600.00000 0 -6548080.650 23259854.601 8199477.392 10 0 59236 49500.00000 0 -6747218.300 24066670.635 5129670.295 10 0 59236 50400.00000 0 -6761211.893 24523292.924 1960299.651 10 0 59236 51300.00000 0 -6637705.751 24601494.348 -1247125.354 10 0 59236 52200.00000 0 -6429327.177 24285364.481 -4430327.884 10 0 59236 53100.00000 0 -6191224.025 23572051.008 -7527473.163 10 0 59236 54000.00000 0 -5978500.218 22471972.508 -10478371.696 10 0 59236 54900.00000 0 -5843658.238 21008492.566 -13225652.203 10 0 59236 55800.00000 0 -5834157.432 19217067.868 -15715880.974 10 0 59236 56700.00000 0 -5990192.274 17143905.040 -17900605.447 10 0 59236 57600.00000 0 -6342785.477 14844181.663 -19737301.359 10 0 59236 58500.00000 0 -6912277.595 12379905.306 -21190204.655 10 0 59236 59400.00000 0 -7707278.035 9817499.548 -22231011.775 10 0 59236 60300.00000 0 -8724122.965 7225217.371 -22839434.556 10 0 59236 61200.00000 0 -9946864.135 4670489.625 -23003598.752 10 0 59236 62100.00000 0 -11347790.250 2217318.824 -22720278.364 10 0 59236 63000.00000 0 -12888460.102 -76173.407 -21994961.035 10 0 59236 63900.00000 0 -14521204.854 -2159943.280 -20841743.073 10 0 59236 64800.00000 0 -16191037.141 -3993875.098 -19283055.944 10 0 59236 65700.00000 0 -17837887.279 -5549208.271 -17349229.334 10 0 59236 66600.00000 0 -19399072.820 -6809482.241 -15077899.159 10 0 59236 67500.00000 0 -20811897.722 -7770960.931 -12513271.974 10 0 59236 68400.00000 0 -22016271.691 -8442520.182 -9705260.156 10 0 59236 69300.00000 0 -22957239.162 -8845004.392 -6708505.021 10 0 59236 70200.00000 0 -23587311.168 -9010081.053 -3581307.327 10 0 59236 71100.00000 0 -23868501.572 -8978643.169 -384486.554 10 0 59236 72000.00000 0 -23773981.692 -8798828.599 2819808.029 10 0 59236 72900.00000 0 -23289283.532 -8523741.622 5969310.628 10 0 59236 73800.00000 0 -22413001.072 -8208974.380 9002852.295 10 0 59236 74700.00000 0 -21156960.337 -7910034.140 11861550.145 10 0 59236 75600.00000 0 -19545851.419 -7679785.953 14489949.115 10 0 59236 76500.00000 0 -17616338.228 -7566019.247 16837094.103 10 0 59236 77400.00000 0 -15415683.617 -7609241.291 18857511.949 10 0 59236 78300.00000 0 -12999947.480 -7840790.511 20512084.921 10 0 59236 79200.00000 0 -10431832.961 -8281348.963 21768799.668 10 0 59236 80100.00000 0 -7778270.188 -8939916.235 22603358.102 10 0 59236 81000.00000 0 -5107837.404 -9813287.739 22999639.500 10 0 59236 81900.00000 0 -2488125.603 -10886059.294 22950005.815 10 0 59236 82800.00000 0 16845.026 -12131158.014 22455445.049 10 0 59236 83700.00000 0 2349051.112 -13510877.814 21525550.356 10 0 59236 84600.00000 0 4458635.391 -14978376.955 20178335.389 10 0 59236 85500.00000 0 6305730.637 -16479575.936 18439889.228 99